Location: Gloden
(48.4833°N, 15.3167°E)
Time: 12:47:37
(UTC+00:00)

COSMOS 2406 - Pass Details

Date: 15 December 2019
Orbit: 844 x 863 km, 71.0° (Epoch: 18 January)

Event Time Altitude Azimuth Distance (km) Brightness Sun altitude
Exits shadow 06:00:12 - 325° (NW) 2,949 5.5 -7.0°
Reaches altitude 10° 06:01:29 10° 321° (NW) 2,483 5.1 -6.8°
Maximum altitude 06:06:50 44° 252° (WSW) 1,165 3.7 -6.0°
Drops below altitude 10° 06:12:08 10° 182° (S) 2,459 6.0 -5.2°
Sets 06:14:40 0° 175° (S) 3,388 6.9 -4.9°
